Wind_Speed
11 6 5 7 6 6 11 7 2 7 5 4 5 6 9 7 2 3 4 12 10 15 14 15 16 20 19 17 15 15 16 21 25 25 25 26 25 25 24 24 24 21 20 20 21 21 21 21 23
11 8 6 2 7 11 10 8 10 7 5 3 5 6 6 5 1 3 11 12 13 14 14 15 17 20 20 18 17 16 18 19 22 23 24 26 25 25 24 22 23 21 21 21 20 19 21 22 25
12 9 5 5 9 15 9 7 5 2 3 6 6 6 2 2 4 8 6 17 15 14 14 15 18 20 21 20 19 18 18 19 21 22 24 25 26 25 23 22 18 20 20 18 17 18 19 23 25
11 7 4 10 17 11 11 4 5 4 3 6 6 7 3 2 6 12 12 17 16 15 15 16 17 20 21 21 20 19 18 19 20 22 24 26 26 21 19 17 15 14 15 17 16 17 21 24 26
9 4 11 14 22 18 10 5 6 3 1 2 6 9 3 5 7 10 16 18 17 15 14 15 17 19 21 20 19 19 19 19 19 20 23 26 25 25 25 17 22 22 13 14 15 17 20 25 27
8 6 12 18 21 10 13 12 11 11 8 7 8 11 8 4 11 12 15 18 15 15 14 14 19 19 20 20 20 19 18 18 19 21 21 21 23 27 23 31 25 20 13 16 19 18 18 24 27
16 12 20 20 18 14 10 10 12 12 9 7 5 8 5 7 10 12 14 17 15 15 14 14 15 16 18 17 19 19 19 18 18 18 19 20 24 25 27 25 25 14 23 23 24 24 20 22 22
11 12 23 20 17 22 13 9 8 12 5 3 3 5 8 5 7 11 14 15 15 15 14 14 15 15 15 15 17 18 18 19 20 21 21 23 25 27 32 22 24 23 27 28 25 26 28 26 21
9 12 18 20 17 14 5 11 9 2 6 3 2 4 5 6 8 12 15 16 16 16 16 15 16 15 15 15 15 18 18 18 20 21 22 23 21 24 20 22 24 26 27 25 25 25 23 21 27
15 16 26 17 13 7 8 9 7 8 12 10 7 5 1 2 5 15 16 19 20 19 19 17 16 16 14 13 13 16 16 19 20 20 20 21 21 20 20 21 25 27 27 21 23 20 22 23 24
15 25 16 12 15 18 17 16 13 14 14 13 10 6 8 5 7 13 19 20 20 17 16 18 18 17 16 15 14 17 20 20 19 22 18 21 19 19 21 20 22 23 23 22 22 22 25 28 27
17 21 21 16 16 15 17 17 18 16 18 16 14 13 12 14 11 13 16 21 20 20 19 19 19 18 18 15 15 14 20 20 21 22 21 23 19 21 25 21 23 22 17 20 21 29 29 31 26
23 21 16 16 20 20 18 21 21 22 15 20 17 14 15 15 15 16 18 18 22 23 23 23 21 20 19 18 15 14 19 20 18 21 23 24 20 22 30 26 26 19 19 21 26 33 28 26 24
8 22 21 19 17 18 20 22 21 14 16 23 17 16 17 16 17 17 16 20 24 25 24 23 23 22 20 19 17 15 14 15 18 21 25 26 20 25 28 25 20 20 15 23 31 33 31 26 23
18 19 17 16 14 13 10 23 26 20 20 23 22 19 19 18 21 17 21 21 24 23 23 25 24 23 22 20 18 16 15 15 16 21 22 24 26 20 21 23 22 22 20 25 34 36 35 29 23
17 18 19 18 20 22 19 26 10 1 9 14 14 11 13 17 20 22 21 21 20 21 24 25 25 24 23 22 19 18 16 16 17 17 21 22 22 18 16 17 22 21 22 30 30 37 34 31 25
13 15 17 14 12 13 21 19 16 5 10 13 11 12 10 11 12 18 19 19 18 20 22 25 27 27 25 21 19 18 17 16 17 16 17 18 19 19 17 16 21 22 26 33 37 35 38 25 23
15 15 18 15 13 16 19 20 15 12 12 12 12 11 12 13 14 17 16 15 15 17 20 23 27 26 25 25 20 18 17 16 16 17 16 17 18 18 17 13 14 23 28 30 32 36 35 30 21
16 16 17 10 4 12 16 19 18 16 15 17 16 18 20 21 20 24 22 18 16 16 21 25 27 28 27 26 24 21 18 21 16 19 15 17 17 18 18 16 17 23 28 28 30 31 33 28 22
18 16 15 12 11 14 19 21 19 19 21 21 23 24 24 22 21 21 26 24 20 19 21 24 29 31 31 29 26 19 19 17 17 17 15 16 18 21 21 25 22 23 23 29 34 27 27 20 25
20 19 14 13 11 16 18 22 19 12 19 22 23 22 21 21 22 22 22 28 25 22 23 27 30 31 31 29 25 19 18 12 14 16 19 19 17 22 28 25 26 26 26 28 30 33 32 20 28
18 16 14 12 8 7 2 5 10 6 4 7 6 9 11 13 15 19 20 21 26 25 23 25 27 31 31 31 29 28 25 19 20 19 16 19 17 18 26 30 27 31 29 29 30 31 33 26 26
14 6 11 10 10 10 13 7 2 6 8 2 9 10 9 11 13 17 19 22 27 26 21 23 26 31 32 34 30 28 22 18 15 17 16 18 19 20 19 24 35 33 34 33 34 29 30 30 28
9 9 6 4 5 7 14 11 5 2 6 7 7 10 11 12 12 12 14 20 24 26 20 23 28 33 34 34 32 29 25 19 16 18 18 17 17 19 20 19 28 33 36 34 36 36 34 29 30
11 12 5 5 4 5 3 7 9 3 3 5 9 12 12 14 14 13 13 11 19 22 24 25 29 33 34 34 34 29 25 20 17 17 16 16 15 17 19 20 22 32 33 34 35 36 39 36 32
14 13 4 7 5 4 6 6 4 3 2 5 9 11 14 17 17 18 15 10 14 18 22 26 30 31 32 32 32 27 24 19 16 16 14 14 13 14 14 20 24 23 31 31 32 34 36 34 31
10 8 1 2 1 3 5 5 8 3 5 5 11 15 18 20 17 22 16 11 11 15 19 22 25 27 27 29 28 27 23 19 17 15 14 12 12 10 12 15 23 26 26 25 26 28 32 32 37
5 9 4 4 5 5 5 4 4 8 13 12 14 16 19 19 19 20 17 13 8 12 16 19 20 22 23 25 25 25 23 20 17 16 15 15 13 11 11 15 15 19 27 25 23 25 29 31 31
6 5 2 0 2 2 1 5 5 10 14 15 15 14 16 16 18 18 19 13 2 8 14 17 19 21 24 23 23 24 22 20 18 16 16 15 15 13 12 12 12 17 21 24 26 25 25 27 25
3 5 4 3 5 2 0 3 4 11 15 14 15 14 14 13 17 18 17 16 5 5 12 15 18 18 20 22 22 21 22 20 18 16 16 16 16 15 14 13 12 13 14 16 18 19 19 23 24
Wind_Direction
177 183 197 215 239 234 248 231 276 180 193 178 196 195 209 335 228 350 116 154 146 155 164 175 172 170 176 177 180 186 189 193 194 193 187 183 179 173 170 166 162 165 166 161 160 157 155 155 151
179 173 199 223 249 231 231 217 216 214 114 123 183 207 222 212 219 111 140 163 154 162 167 174 177 173 177 179 181 183 187 192 191 191 186 182 179 175 171 167 164 169 166 163 162 157 156 157 157
168 192 229 228 236 244 257 190 229 161 206 217 204 241 214 184 163 162 125 160 158 165 168 178 184 177 181 183 183 185 188 191 194 192 186 184 181 177 174 164 164 174 171 164 166 160 163 164 162
167 188 222 238 236 238 274 281 150 143 145 194 240 212 199 215 158 172 163 162 163 169 170 192 188 184 184 186 186 187 189 191 194 196 192 187 185 176 161 164 167 184 187 176 171 168 168 167 166
198 234 236 233 243 246 246 266 205 213 303 240 223 228 226 196 173 174 169 170 171 172 173 186 190 191 188 189 192 191 191 192 190 191 193 189 180 169 158 182 179 172 193 193 188 183 179 173 171
202 254 233 235 240 216 241 253 243 256 271 265 250 253 250 144 183 179 175 180 178 176 171 176 190 196 197 194 195 197 198 196 197 192 198 191 192 183 190 188 186 171 187 198 203 184 187 182 179
245 220 243 247 253 240 237 247 236 244 265 255 268 244 240 201 188 180 179 180 180 178 172 174 183 193 198 199 198 198 203 202 201 197 201 196 198 197 189 187 193 215 187 197 193 175 182 196 196
241 252 252 241 246 249 200 228 245 234 189 157 234 228 247 22 203 182 177 179 179 180 178 178 181 190 197 203 205 204 204 208 204 201 200 203 200 195 190 220 202 186 191 194 197 185 182 187 208
223 239 244 233 235 243 187 211 188 195 220 166 201 294 10 335 193 192 182 186 189 192 188 186 186 191 194 199 207 207 209 209 206 204 204 209 198 199 209 199 197 194 195 196 203 194 188 195 204
209 228 243 256 248 238 215 245 201 223 213 224 218 154 129 343 210 207 206 201 203 200 196 193 193 194 195 196 202 204 211 208 207 203 205 205 206 205 204 206 204 200 199 218 202 197 194 194 194
218 236 244 244 249 257 258 249 244 242 244 233 250 272 287 295 256 236 223 221 216 215 210 201 197 198 198 201 201 202 209 212 211 207 202 199 200 197 200 203 201 195 212 208 209 204 201 197 183
241 232 241 242 243 248 254 259 254 252 255 264 262 268 277 273 261 244 238 227 222 217 213 211 202 197 199 201 202 204 213 207 210 204 211 200 194 196 195 194 195 203 210 218 212 201 200 193 182
230 247 218 244 244 255 266 262 264 256 252 256 258 257 256 261 257 249 243 236 226 221 216 209 203 199 199 199 203 200 207 213 200 204 207 210 203 201 206 208 206 220 229 220 199 184 192 183 178
224 234 246 235 242 254 259 261 254 244 240 248 249 249 248 244 247 252 241 237 227 221 217 210 205 200 200 200 202 201 202 210 202 202 207 211 209 208 208 215 223 229 226 209 201 190 187 181 178
249 250 245 235 231 234 256 259 249 247 244 247 253 246 245 247 247 246 243 239 233 225 217 211 205 203 202 201 202 202 201 206 200 202 206 209 209 214 214 222 228 235 222 213 191 187 191 176 176
225 235 248 236 230 240 230 259 240 148 224 230 237 238 244 243 245 242 242 242 236 226 214 210 205 201 201 200 199 201 202 207 210 200 206 209 213 218 219 227 234 231 221 211 181 174 176 173 177
216 237 220 246 214 224 215 255 250 303 270 250 255 256 241 244 232 238 242 242 238 227 215 209 206 201 196 195 196 199 199 198 206 200 199 205 212 216 219 221 234 237 224 191 185 175 174 163 173
222 222 244 240 219 217 244 251 253 241 241 253 254 256 257 247 242 242 242 244 239 226 217 209 208 204 193 194 197 200 198 198 205 197 200 206 208 212 217 200 218 203 186 182 176 177 169 161 168
262 260 253 249 228 257 264 268 267 264 253 258 252 249 250 249 250 250 245 249 242 226 211 209 205 202 188 185 189 191 189 200 206 206 198 202 209 208 195 188 194 192 178 171 166 166 162 159 163
235 245 247 261 268 269 271 272 274 266 259 254 249 249 250 250 249 250 250 246 241 229 211 206 208 202 196 191 194 196 190 198 205 201 197 207 206 207 196 200 191 188 179 173 175 158 142 157 168
227 239 248 256 284 273 273 278 253 254 243 247 255 266 272 269 265 256 249 245 236 229 216 209 208 205 201 193 189 189 183 180 197 199 203 206 206 211 210 205 200 193 195 184 181 185 177 166 179
227 222 251 250 259 255 66 282 302 274 246 227 279 288 284 287 278 265 259 256 236 230 223 213 207 202 202 193 187 187 184 193 208 210 198 205 209 210 207 201 194 197 202 194 190 187 180 178 185
236 177 226 232 244 277 251 250 160 195 257 90 351 335 310 298 301 283 259 251 245 234 222 214 203 200 198 194 191 189 191 194 201 198 193 203 207 212 208 216 205 194 200 197 197 191 190 185 187
147 154 169 215 242 250 242 224 173 99 328 323 352 339 326 313 303 290 278 261 246 234 214 208 199 197 194 194 192 191 186 181 187 191 194 198 203 212 213 208 203 207 203 201 201 195 190 192 194
179 171 169 190 201 245 134 213 263 27 42 355 341 342 339 335 320 303 284 271 236 218 200 198 197 194 191 189 190 187 182 184 188 188 195 192 201 206 211 209 201 200 203 207 207 199 196 195 197
189 192 235 227 196 159 164 224 127 131 198 320 335 348 350 350 340 321 298 274 248 207 195 194 195 191 189 186 187 182 177 185 189 194 192 191 207 212 213 215 211 195 205 214 209 205 199 200 203
171 215 270 262 186 260 212 224 173 216 249 339 354 359 356 353 354 331 325 288 234 203 196 192 192 188 189 186 179 177 175 180 186 187 184 178 181 191 203 201 208 201 201 198 202 200 209 208 205
231 139 172 200 208 224 183 240 39 14 353 344 344 352 352 355 352 350 333 323 218 188 179 176 184 183 181 184 177 176 172 179 181 180 175 172 173 179 182 198 196 195 203 204 207 212 217 211 213
156 170 203 64 301 281 286 106 52 20 353 347 342 353 356 6 359 350 337 339 52 168 168 170 177 175 172 176 174 175 171 178 178 181 174 175 175 176 176 180 182 198 207 214 213 209 206 208 205
161 162 192 247 179 158 343 290 77 6 355 344 344 15 3 9 18 355 348 345 40 152 144 158 165 164 164 162 171 172 171 175 178 180 178 178 178 184 187 188 185 184 187 190 197 200 201 205 206
Height
785 788 788 783 787 775 765 759 750 755 757 748 746 750 750 746 752 764 752 755 757 760 764 764 767 770 774 777 779 782 783 784 787 791 794 797 800 802 805 808 810 812 814 816 818 818 820 821 823
786 787 786 775 782 773 756 745 756 745 748 750 751 753 753 751 746 748 752 756 758 761 763 766 766 771 774 776 780 782 783 786 788 792 795 798 801 804 806 810 812 814 815 816 819 821 821 823 825
785 785 776 772 768 767 755 746 744 746 747 751 751 746 746 746 746 747 751 754 758 761 764 766 766 770 773 777 779 781 784 786 790 793 795 798 801 803 807 811 815 817 816 818 820 821 824 825 826
782 782 777 775 763 757 755 746 743 748 747 747 745 749 747 745 745 749 752 755 758 762 763 764 765 769 773 776 779 781 783 786 790 793 795 797 800 805 808 812 815 819 818 818 821 823 825 827 828
779 769 770 770 757 748 752 750 747 751 750 747 747 746 748 746 748 751 752 755 758 761 763 763 766 769 772 776 779 781 783 786 789 792 796 798 800 803 802 813 812 811 821 822 822 827 827 828 829
773 765 768 760 750 748 753 744 750 750 746 747 750 746 744 744 747 750 753 755 758 761 762 764 765 769 771 774 777 781 784 786 788 791 797 798 802 801 802 803 810 810 815 819 822 823 829 829 830
770 765 757 748 746 746 751 744 748 743 743 746 742 749 738 743 747 750 753 755 757 760 762 765 767 770 773 775 776 780 783 786 788 791 796 799 800 802 804 808 810 808 810 819 820 820 824 830 831
764 759 755 744 754 749 741 745 741 741 742 746 743 745 744 746 749 750 753 755 756 758 761 764 767 770 774 776 777 780 782 785 787 790 793 796 799 802 804 806 808 807 812 816 818 818 821 825 831
764 767 752 745 754 748 744 747 740 738 740 741 742 742 747 748 749 750 751 753 755 758 759 762 766 769 772 775 777 779 782 784 787 789 792 795 799 801 803 805 806 807 812 815 818 820 822 825 830
757 753 744 734 740 748 743 744 739 744 737 740 740 744 747 749 749 748 749 749 752 754 756 759 763 767 770 772 775 777 780 782 784 787 790 794 797 799 802 804 806 808 811 814 818 822 823 826 831
749 739 734 740 746 744 744 740 739 742 740 733 736 739 738 743 744 745 744 745 750 754 757 758 760 764 767 770 772 774 776 779 780 783 787 790 794 796 800 802 805 808 810 813 817 819 820 824 829
749 734 738 736 742 742 744 738 739 737 737 728 731 734 737 737 738 740 740 741 746 750 753 756 758 760 764 767 769 771 773 775 777 780 784 787 790 792 795 798 801 803 807 810 812 813 818 821 826
744 737 734 739 740 739 738 739 737 734 732 728 729 731 734 732 731 733 734 736 738 744 748 751 754 757 761 764 767 768 770 773 775 777 780 784 787 789 791 794 797 801 803 805 807 806 815 820 824
732 736 733 735 736 735 739 733 732 727 727 724 725 727 725 725 725 725 728 730 731 735 741 747 750 753 757 760 763 766 768 771 772 773 777 780 784 786 790 792 795 797 799 801 804 807 811 817 823
736 741 736 733 734 734 734 729 723 716 718 719 716 716 717 718 719 719 721 723 726 729 736 740 744 748 752 756 759 763 764 769 770 770 774 777 781 784 787 789 792 794 795 798 800 803 810 814 821
738 735 735 723 726 726 733 716 705 705 710 713 710 709 711 713 713 714 716 718 720 723 727 734 739 743 747 752 755 759 762 766 769 768 771 774 778 781 784 786 787 789 792 794 794 796 808 812 817
730 726 727 723 719 719 722 712 699 699 705 707 705 705 704 707 707 709 711 713 714 717 722 728 734 737 741 747 752 756 758 761 766 766 768 772 775 778 780 782 783 785 786 788 792 798 803 807 815
725 730 722 720 711 716 713 709 702 701 706 705 702 702 701 701 700 701 703 707 709 713 718 723 729 733 737 742 749 753 754 758 762 762 765 769 771 773 777 778 779 780 781 785 786 793 800 806 814
721 719 716 707 710 722 713 708 702 697 699 704 701 698 695 693 693 694 696 701 704 707 711 716 722 728 731 736 743 747 748 754 759 759 761 765 767 770 773 775 778 779 780 783 787 792 796 807 814
727 723 719 713 716 721 711 704 697 694 692 692 690 687 684 686 687 688 690 692 697 700 704 708 714 720 724 729 736 742 745 749 755 757 758 761 764 766 770 772 776 778 782 783 787 793 795 805 812
721 721 720 722 716 713 710 699 684 679 679 682 684 684 683 682 682 681 682 684 687 693 697 700 705 713 720 723 730 738 743 746 752 753 753 757 761 763 766 769 774 777 780 783 787 789 794 803 810
720 713 720 723 725 718 714 702 685 682 683 684 684 682 680 678 678 677 677 676 678 684 688 694 698 705 714 719 722 728 731 738 744 748 750 753 757 760 763 767 769 775 778 781 786 789 793 799 804
715 717 720 720 718 715 707 715 680 685 683 688 687 688 685 683 680 673 670 671 672 674 682 688 692 698 706 712 716 723 727 732 739 744 746 750 754 757 760 763 765 768 773 776 783 787 792 794 801
714 718 722 721 719 721 698 702 678 682 690 687 689 687 685 680 676 672 668 665 664 665 672 682 685 690 699 706 711 717 722 727 735 739 742 746 750 753 756 759 761 765 770 772 777 783 788 792 796
713 716 726 734 738 707 697 701 683 688 691 689 687 684 680 676 671 666 661 657 655 657 665 673 680 684 692 699 706 712 718 725 730 734 737 740 746 749 752 755 757 761 764 770 773 777 781 787 790
711 710 702 707 702 689 700 696 676 685 688 683 679 677 675 673 671 664 654 650 650 653 659 667 673 679 688 695 702 708 714 721 726 731 733 736 741 746 748 751 754 757 762 766 769 774 777 782 788
714 719 709 719 714 710 682 679 680 682 679 678 675 676 675 673 673 668 652 646 646 651 657 664 670 677 687 694 699 705 710 718 723 728 731 734 739 743 745 748 751 754 759 763 767 771 776 779 782
706 707 722 716 714 709 682 682 676 683 683 677 674 673 677 679 680 675 656 647 644 650 655 663 671 677 686 695 698 703 707 715 721 726 728 732 736 740 743 746 748 751 755 759 763 767 770 774 778
713 713 714 709 716 707 694 682 687 689 686 683 678 676 684 687 689 682 670 656 649 651 656 665 672 679 684 692 697 701 704 713 718 723 725 730 734 738 742 745 747 750 753 756 759 763 766 770 774
701 705 707 706 723 715 716 694 685 687 686 684 681 685 690 693 694 692 682 668 657 655 660 667 674 679 684 691 697 699 703 710 715 719 723 727 731 736 740 743 746 749 752 754 757 761 765 769 772